| time (UTC) | temp C | wind direction | speed KPH | gust KPH | rain 1hr cm | rain 24hr cm | rain mn cm | humidity % | barometer mb |
| 20260506222549 | 13 | 192 | 3.2 | 20.9 | 0.03 | 0.91 | 0.91 | 16 | 1005.0 |
| 20260506222049 | 13 | 0 | 6.4 | 22.5 | 0.03 | 0.91 | 0.91 | 16 | 1005.0 |
| 20260506221556 | 13 | 240 | 3.2 | 22.5 | 0.03 | 0.91 | 0.91 | 16 | 1005.0 |
| 20260506221050 | 13 | 299 | 8.0 | 17.7 | 0.03 | 0.91 | 0.91 | 16 | 1005.0 |
| 20260506220551 | 13 | 252 | 4.8 | 17.7 | 0.03 | 0.91 | 0.91 | 16 | 1005.0 |
| 20260506215551 | 13 | 295 | 8.0 | 17.7 | 0.00 | 0.89 | 0.89 | 17 | 1005.0 |
| 20260506215051 | 13 | 269 | 3.2 | 16.1 | 0.00 | 0.89 | 0.89 | 17 | 1005.0 |
| 20260506214554 | 13 | 287 | 4.8 | 19.3 | 0.00 | 0.89 | 0.89 | 17 | 1005.1 |
| 20260506214050 | 13 | 195 | 6.4 | 19.3 | 0.00 | 0.89 | 0.89 | 17 | 1005.0 |
| 20260506213552 | 13 | 0 | 6.4 | 16.1 | 0.00 | 0.89 | 0.89 | 18 | 1005.0 |
| 20260506213054 | 13 | 275 | 6.4 | 16.1 | 0.00 | 0.89 | 0.89 | 18 | 1005.1 |
| 20260506212550 | 13 | 231 | 3.2 | 16.1 | 0.00 | 0.89 | 0.89 | 18 | 1005.0 |
| 20260506212050 | 13 | 0 | 4.8 | 16.1 | 0.00 | 0.89 | 0.89 | 18 | 1005.0 |
| 20260506211556 | 13 | 343 | 4.8 | 16.1 | 0.03 | 0.89 | 0.89 | 18 | 1005.0 |
| 20260506211050 | 13 | 222 | 6.4 | 20.9 | 0.03 | 0.89 | 0.89 | 18 | 1005.0 |
| 20260506210551 | 13 | 172 | 6.4 | 20.9 | 0.03 | 0.89 | 0.89 | 18 | 1005.0 |
| 20260506210055 | 13 | 230 | 4.8 | 14.5 | 0.03 | 0.89 | 0.89 | 18 | 1005.1 |
| 20260506205550 | 13 | 234 | 3.2 | 14.5 | 0.03 | 0.89 | 0.89 | 18 | 1005.1 |
| 20260506205050 | 13 | 188 | 3.2 | 16.1 | 0.03 | 0.89 | 0.89 | 18 | 1005.2 |
| 20260506204555 | 13 | 305 | 4.8 | 16.1 | 0.05 | 0.89 | 0.89 | 18 | 1005.2 |
| 20260506204049 | 13 | 302 | 4.8 | 12.9 | 0.05 | 0.89 | 0.89 | 18 | 1005.1 |
| 20260506203552 | 13 | 247 | 3.2 | 12.9 | 0.05 | 0.89 | 0.89 | 18 | 1005.1 |
| 20260506203100 | 13 | 0 | 4.8 | 12.9 | 0.08 | 0.89 | 0.89 | 18 | 1005.2 |
| 20260506202550 | 13 | 284 | 4.8 | 11.3 | 0.08 | 0.89 | 0.89 | 18 | 1005.2 |
| 20260506202050 | 13 | 297 | 3.2 | 19.3 | 0.08 | 0.89 | 0.89 | 18 | 1005.3 |
| 20260506201549 | 13 | 225 | 1.6 | 20.9 | 0.08 | 0.86 | 0.86 | 18 | 1005.3 |
| 20260506201050 | 13 | 246 | 6.4 | 20.9 | 0.08 | 0.86 | 0.86 | 18 | 1005.4 |
| 20260506200554 | 13 | 213 | 3.2 | 14.5 | 0.08 | 0.86 | 0.86 | 19 | 1005.6 |
| 20260506200054 | 13 | 278 | 3.2 | 14.5 | 0.10 | 0.86 | 0.86 | 19 | 1005.6 |
| 20260506195550 | 13 | 289 | 6.4 | 16.1 | 0.13 | 0.86 | 0.86 | 19 | 1005.7 |
| 20260506195050 | 13 | 173 | 4.8 | 16.1 | 0.18 | 0.86 | 0.86 | 19 | 1005.7 |
| 20260506194556 | 13 | 273 | 3.2 | 11.3 | 0.18 | 0.84 | 0.84 | 19 | 1005.8 |
| 20260506194052 | 13 | 259 | 0.0 | 9.7 | 0.20 | 0.84 | 0.84 | 19 | 1005.9 |
| 20260506193549 | 13 | 0 | 0.0 | 11.3 | 0.23 | 0.84 | 0.84 | 20 | 1005.8 |
| 20260506193103 | 13 | 278 | 4.8 | 12.9 | 0.23 | 0.81 | 0.81 | 20 | 1005.9 |
| 20260506192550 | 13 | 246 | 3.2 | 12.9 | 0.25 | 0.81 | 0.81 | 20 | 1006.0 |
| 20260506192051 | 13 | 0 | 3.2 | 9.7 | 0.28 | 0.81 | 0.81 | 21 | 1006.0 |
| 20260506191552 | 13 | 268 | 3.2 | 9.7 | 0.25 | 0.79 | 0.79 | 21 | 1006.0 |
| 20260506191051 | 13 | 278 | 1.6 | 9.7 | 0.25 | 0.79 | 0.79 | 22 | 1006.2 |
| 20260506190552 | 13 | 286 | 3.2 | 12.9 | 0.28 | 0.79 | 0.79 | 22 | 1006.1 |
| 20260506190054 | 13 | 300 | 1.6 | 16.1 | 0.25 | 0.76 | 0.76 | 23 | 1006.2 |
| 20260506185550 | 13 | 259 | 6.4 | 16.1 | 0.23 | 0.74 | 0.74 | 24 | 1006.2 |
| 20260506185050 | 13 | 267 | 1.6 | 14.5 | 0.20 | 0.69 | 0.69 | 24 | 1006.2 |
| 20260506184557 | 13 | 238 | 3.2 | 14.5 | 0.23 | 0.66 | 0.66 | 24 | 1006.2 |
| 20260506184050 | 13 | 0 | 0.0 | 8.0 | 0.25 | 0.64 | 0.64 | 25 | 1006.4 |
| 20260506183550 | 13 | 291 | 0.0 | 8.0 | 0.25 | 0.61 | 0.61 | 26 | 1006.4 |
| 20260506183101 | 13 | 291 | 1.6 | 14.5 | 0.25 | 0.58 | 0.58 | 27 | 1006.2 |
| 20260506182551 | 13 | 249 | 6.4 | 16.1 | 0.23 | 0.56 | 0.56 | 27 | 1006.4 |
| 20260506182050 | 13 | 244 | 6.4 | 16.1 | 0.20 | 0.53 | 0.53 | 27 | 1006.5 |
| 20260506181625 | 13 | 199 | 1.6 | 8.0 | 0.23 | 0.53 | 0.53 | 26 | 1006.4 |
| 20260506181050 | 13 | 63 | 0.0 | 14.5 | 0.28 | 0.53 | 0.53 | 27 | 1006.5 |
| 20260506180550 | 13 | 231 | 3.2 | 14.5 | 0.28 | 0.51 | 0.51 | 27 | 1006.4 |
| 20260506180059 | 13 | 202 | 3.2 | 14.5 | 0.30 | 0.51 | 0.51 | 27 | 1006.6 |
| 20260506175550 | 13 | 171 | 4.8 | 14.5 | 0.33 | 0.51 | 0.51 | 27 | 1006.7 |
| 20260506175049 | 13 | 325 | 1.6 | 9.7 | 0.33 | 0.48 | 0.48 | 28 | 1006.6 |
| 20260506174558 | 13 | 0 | 3.2 | 9.7 | 0.30 | 0.43 | 0.43 | 28 | 1006.8 |
| 20260506174050 | 13 | 242 | 1.6 | 9.7 | 0.25 | 0.36 | 0.36 | 28 | 1006.9 |
| 20260506173550 | 13 | 204 | 1.6 | 8.0 | 0.28 | 0.36 | 0.36 | 28 | 1006.8 |
| 20260506173121 | 13 | 128 | 1.6 | 8.0 | 0.25 | 0.33 | 0.33 | 28 | 1006.8 |
| 20260506172550 | 13 | 196 | 1.6 | 11.3 | 0.28 | 0.33 | 0.33 | 29 | 1006.9 |
| 20260506172050 | 13 | 182 | 3.2 | 11.3 | 0.28 | 0.33 | 0.33 | 29 | 1007.0 |
| 20260506171602 | 13 | 0 | 0.0 | 4.8 | 0.28 | 0.30 | 0.30 | 29 | 1007.2 |
| 20260506171051 | 13 | 0 | 0.0 | 4.8 | 0.23 | 0.25 | 0.25 | 31 | 1007.2 |
| 20260506170550 | 13 | 0 | 0.0 | 4.8 | 0.20 | 0.23 | 0.23 | 31 | 1007.2 |
| 20260506170107 | 13 | 0 | 0.0 | 3.2 | 0.20 | 0.20 | 0.20 | 32 | 1007.4 |
| 20260506165553 | 13 | 0 | 0.0 | 6.4 | 0.18 | 0.18 | 0.18 | 34 | 1007.6 |
| 20260506165051 | 13 | 0 | 0.0 | 14.5 | 0.15 | 0.15 | 0.15 | 35 | 1007.6 |
| 20260506164603 | 14 | 299 | 3.2 | 14.5 | 0.13 | 0.13 | 0.13 | 38 | 1007.8 |
| 20260506164050 | 14 | 225 | 1.6 | 8.0 | 0.10 | 0.10 | 0.10 | 39 | 1007.7 |
| 20260506163549 | 14 | 233 | 0.0 | 8.0 | 0.08 | 0.08 | 0.08 | 42 | 1007.8 |
| 20260506163059 | 15 | 315 | 0.0 | 12.9 | 0.08 | 0.08 | 0.08 | 44 | 1007.7 |
| 20260506162548 | 15 | 0 | 3.2 | 12.9 | 0.05 | 0.05 | 0.05 | 46 | 1007.8 |
| 20260506162049 | 15 | 288 | 1.6 | 9.7 | 0.05 | 0.05 | 0.05 | 48 | 1007.9 |
| 20260506161550 | 15 | 0 | 0.0 | 9.7 | 0.03 | 0.03 | 0.03 | 49 | 1008.0 |
| 20260506161050 | 15 | 0 | 1.6 | 11.3 | 0.03 | 0.03 | 0.03 | 51 | 1008.0 |
| 20260506160551 | 15 | 0 | 3.2 | 11.3 | 0.03 | 0.03 | 0.03 | 53 | 1008.1 |
| 20260506160107 | 15 | 241 | 3.2 | 11.3 | 0.00 | 0.00 | 0.00 | 55 | 1008.1 |
| 20260506155550 | 16 | 191 | 3.2 | 9.7 | 0.00 | 0.00 | 0.00 | 56 | 1007.9 |
| 20260506155050 | 16 | 0 | 1.6 | 9.7 | 0.00 | 0.00 | 0.00 | 57 | 1007.8 |
| 20260506154554 | 16 | 0 | 0.0 | 11.3 | 0.00 | 0.00 | 0.00 | 59 | 1007.8 |
| 20260506154050 | 16 | 0 | 0.0 | 11.3 | 0.00 | 0.00 | 0.00 | 60 | 1008.0 |
| 20260506153550 | 16 | 242 | 3.2 | 11.3 | 0.00 | 0.00 | 0.00 | 61 | 1007.9 |
| 20260506153050 | 16 | 257 | 1.6 | 20.9 | 0.00 | 0.00 | 0.00 | 62 | 1008.0 |
| 20260506152551 | 16 | 221 | 3.2 | 20.9 | 0.00 | 0.00 | 0.00 | 62 | 1007.9 |
| 20260506152051 | 16 | 254 | 6.4 | 20.9 | 0.00 | 0.00 | 0.00 | 63 | 1008.0 |
| 20260506151556 | 16 | 247 | 3.2 | 14.5 | 0.00 | 0.00 | 0.00 | 63 | 1008.2 |
| 20260506151049 | 16 | 302 | 3.2 | 17.7 | 0.00 | 0.00 | 0.00 | 63 | 1008.3 |
| 20260506150550 | 16 | 325 | 4.8 | 17.7 | 0.00 | 0.00 | 0.00 | 63 | 1008.3 |
| 20260506145550 | 16 | 302 | 6.4 | 17.7 | 0.00 | 0.00 | 0.00 | 63 | 1008.4 |
| 20260506145049 | 16 | 286 | 4.8 | 17.7 | 0.00 | 0.00 | 0.00 | 63 | 1008.5 |
| 20260506144554 | 16 | 253 | 4.8 | 22.5 | 0.00 | 0.00 | 0.00 | 63 | 1008.6 |
| 20260506144049 | 16 | 105 | 8.0 | 22.5 | 0.00 | 0.00 | 0.00 | 63 | 1008.5 |
| 20260506143549 | 16 | 285 | 4.8 | 17.7 | 0.00 | 0.00 | 0.00 | 63 | 1008.4 |
| 20260506143055 | 16 | 207 | 6.4 | 17.7 | 0.00 | 0.00 | 0.00 | 63 | 1008.6 |
| 20260506142550 | 16 | 269 | 3.2 | 14.5 | 0.00 | 0.00 | 0.00 | 63 | 1008.6 |
| 20260506142050 | 16 | 259 | 1.6 | 22.5 | 0.00 | 0.00 | 0.00 | 63 | 1008.6 |
| 20260506141554 | 16 | 236 | 4.8 | 22.5 | 0.00 | 0.00 | 0.00 | 63 | 1008.5 |
| 20260506141050 | 16 | 184 | 8.0 | 17.7 | 0.00 | 0.00 | 0.00 | 63 | 1008.6 |
| 20260506140554 | 16 | 299 | 8.0 | 27.4 | 0.00 | 0.00 | 0.00 | 63 | 1008.7 |
| 20260506140051 | 16 | 236 | 6.4 | 27.4 | 0.00 | 0.00 | 0.00 | 63 | 1008.5 |
| 20260506135549 | 16 | 286 | 8.0 | 27.4 | 0.00 | 0.00 | 0.00 | 63 | 1008.3 |
| 20260506135049 | 17 | 259 | 9.7 | 22.5 | 0.00 | 0.00 | 0.00 | 63 | 1008.5 |
| 20260506134549 | 17 | 238 | 6.4 | 19.3 | 0.00 | 0.00 | 0.00 | 62 | 1008.5 |
| 20260506134050 | 16 | 242 | 6.4 | 19.3 | 0.00 | 0.00 | 0.00 | 62 | 1008.4 |
| 20260506133549 | 16 | 320 | 8.0 | 22.5 | 0.00 | 0.00 | 0.00 | 61 | 1008.3 |
| 20260506133049 | 16 | 192 | 6.4 | 22.5 | 0.00 | 0.00 | 0.00 | 61 | 1008.0 |
| 20260506132620 | 16 | 191 | 6.4 | 22.5 | 0.00 | 0.00 | 0.00 | 61 | 1008.1 |
| 20260506132049 | 16 | 298 | 6.4 | 24.1 | 0.00 | 0.00 | 0.00 | 60 | 1008.3 |
| 20260506131602 | 16 | 311 | 6.4 | 24.1 | 0.00 | 0.00 | 0.00 | 60 | 1008.3 |
| 20260506131049 | 16 | 246 | 6.4 | 19.3 | 0.00 | 0.00 | 0.00 | 60 | 1008.2 |
| 20260506130549 | 16 | 256 | 6.4 | 19.3 | 0.00 | 0.00 | 0.00 | 60 | 1008.2 |
| 20260506130055 | 16 | 198 | 3.2 | 17.7 | 0.00 | 0.00 | 0.00 | 60 | 1008.0 |
| 20260506125549 | 16 | 219 | 4.8 | 25.7 | 0.00 | 0.00 | 0.00 | 60 | 1008.5 |
| 20260506125050 | 16 | 226 | 8.0 | 25.7 | 0.00 | 0.00 | 0.00 | 60 | 1008.5 |
| 20260506124557 | 16 | 241 | 3.2 | 17.7 | 0.00 | 0.00 | 0.00 | 60 | 1008.5 |
| 20260506124050 | 16 | 335 | 6.4 | 17.7 | 0.00 | 0.00 | 0.00 | 60 | 1008.7 |
| 20260506123550 | 16 | 196 | 4.8 | 16.1 | 0.00 | 0.00 | 0.00 | 60 | 1008.8 |
| 20260506123053 | 16 | 234 | 4.8 | 16.1 | 0.00 | 0.00 | 0.00 | 60 | 1008.8 |
| 20260506122550 | 16 | 259 | 3.2 | 12.9 | 0.00 | 0.00 | 0.00 | 59 | 1008.8 |
| 20260506122049 | 16 | 0 | 3.2 | 14.5 | 0.00 | 0.00 | 0.00 | 60 | 1008.8 |
| 20260506121552 | 16 | 279 | 4.8 | 20.9 | 0.00 | 0.00 | 0.00 | 60 | 1008.8 |
| 20260506121050 | 15 | 308 | 3.2 | 20.9 | 0.00 | 0.00 | 0.00 | 60 | 1009.0 |
| 20260506120554 | 15 | 290 | 1.6 | 16.1 | 0.00 | 0.00 | 0.00 | 60 | 1008.6 |
| 20260506120053 | 15 | 0 | 8.0 | 16.1 | 0.00 | 0.00 | 0.00 | 59 | 1008.7 |
| 20260506115550 | 15 | 262 | 3.2 | 16.1 | 0.00 | 0.00 | 0.00 | 59 | 1008.9 |
| 20260506115050 | 15 | 206 | 1.6 | 16.1 | 0.00 | 0.00 | 0.00 | 59 | 1008.7 |
| 20260506114550 | 15 | 288 | 4.8 | 12.9 | 0.00 | 0.00 | 0.00 | 59 | 1008.7 |
| 20260506114049 | 15 | 193 | 3.2 | 12.9 | 0.00 | 0.00 | 0.00 | 59 | 1008.5 |
| 20260506113549 | 15 | 226 | 3.2 | 12.9 | 0.00 | 0.00 | 0.00 | 58 | 1008.5 |
| 20260506113050 | 15 | 188 | 3.2 | 12.9 | 0.00 | 0.00 | 0.00 | 57 | 1008.5 |
| 20260506112552 | 15 | 288 | 4.8 | 12.9 | 0.00 | 0.00 | 0.00 | 55 | 1008.4 |
| 20260506112049 | 15 | 166 | 0.0 | 16.1 | 0.00 | 0.00 | 0.00 | 54 | 1008.5 |
| 20260506111553 | 15 | 0 | 0.0 | 17.7 | 0.00 | 0.00 | 0.00 | 52 | 1008.4 |
| 20260506111049 | 14 | 182 | 3.2 | 17.7 | 0.00 | 0.00 | 0.00 | 50 | 1008.4 |
| 20260506110550 | 14 | 210 | 3.2 | 11.3 | 0.00 | 0.00 | 0.00 | 47 | 1008.6 |
| 20260506110053 | 13 | 0 | 0.0 | 11.3 | 0.00 | 0.00 | 0.00 | 44 | 1008.5 |
| 20260506105550 | 13 | 267 | 0.0 | 4.8 | 0.00 | 0.00 | 0.00 | 40 | 1008.5 |
| 20260506105051 | 12 | 0 | 0.0 | 19.3 | 0.00 | 0.00 | 0.00 | 36 | 1008.7 |
| 20260506104550 | 12 | 109 | 0.0 | 19.3 | 0.00 | 0.00 | 0.00 | 30 | 1008.5 |
| 20260506104049 | 11 | 173 | 6.4 | 19.3 | 0.00 | 0.00 | 0.00 | 26 | 1008.7 |
| 20260506103550 | 11 | 0 | 1.6 | 9.7 | 0.00 | 0.00 | 0.00 | 25 | 1008.8 |
| 20260506103049 | 10 | 115 | 3.2 | 9.7 | 0.00 | 0.00 | 0.00 | 25 | 1008.6 |
| 20260506102550 | 10 | 0 | 0.0 | 4.8 | 0.00 | 0.00 | 0.00 | 25 | 1008.6 |
| 20260506102103 | 10 | 0 | 0.0 | 4.8 | 0.00 | 0.00 | 0.00 | 25 | 1008.5 |
| 20260506101601 | 9 | 153 | 0.0 | 6.4 | 0.00 | 0.00 | 0.00 | 26 | 1008.4 |
| 20260506101049 | 9 | 0 | 1.6 | 6.4 | 0.00 | 0.00 | 0.00 | 25 | 1008.5 |
| 20260506100549 | 8 | 0 | 0.0 | 0.0 | 0.00 | 0.00 | 0.00 | 27 | 1008.5 |
| 20260506100057 | 8 | 0 | 0.0 | 0.0 | 0.00 | 0.00 | 0.00 | 28 | 1008.3 |
| 20260506095549 | 8 | 0 | 0.0 | 0.0 | 0.00 | 0.00 | 0.00 | 28 | 1008.3 |
| 20260506095049 | 8 | 0 | 0.0 | 3.2 | 0.00 | 0.00 | 0.00 | 29 | 1008.3 |
| 20260506094620 | 8 | 0 | 0.0 | 3.2 | 0.00 | 0.00 | 0.00 | 30 | 1008.2 |
| 20260506094049 | 8 | 0 | 0.0 | 0.0 | 0.00 | 0.00 | 0.00 | 31 | 1008.1 |
| 20260506093549 | 8 | 0 | 0.0 | 0.0 | 0.00 | 0.00 | 0.00 | 31 | 1008.1 |
| 20260506093048 | 8 | 0 | 0.0 | 0.0 | 0.00 | 0.00 | 0.00 | 32 | 1008.0 |
| 20260506092551 | 8 | 0 | 0.0 | 0.0 | 0.00 | 0.00 | 0.00 | 33 | 1008.0 |
| 20260506092050 | 8 | 0 | 0.0 | 0.0 | 0.00 | 0.00 | 0.00 | 33 | 1008.1 |
| 20260506091549 | 8 | 0 | 0.0 | 0.0 | 0.00 | 0.00 | 0.00 | 33 | 1008.1 |
| 20260506091049 | 8 | 0 | 0.0 | 0.0 | 0.00 | 0.00 | 0.00 | 34 | 1008.2 |
| 20260506090550 | 8 | 0 | 0.0 | 0.0 | 0.00 | 0.00 | 0.00 | 34 | 1008.3 |
| 20260506090051 | 8 | 0 | 0.0 | 0.0 | 0.00 | 0.00 | 0.00 | 34 | 1008.4 |
| 20260506085549 | 8 | 0 | 0.0 | 0.0 | 0.00 | 0.00 | 0.00 | 34 | 1008.5 |
| 20260506085049 | 8 | 0 | 0.0 | 0.0 | 0.00 | 0.00 | 0.00 | 34 | 1008.3 |
| 20260506084556 | 8 | 0 | 0.0 | 0.0 | 0.00 | 0.00 | 0.00 | 34 | 1008.4 |
| 20260506084049 | 8 | 0 | 0.0 | 0.0 | 0.00 | 0.00 | 0.00 | 35 | 1008.3 |
| 20260506083552 | 9 | 0 | 0.0 | 0.0 | 0.00 | 0.00 | 0.00 | 35 | 1008.4 |
| 20260506083050 | 9 | 0 | 0.0 | 0.0 | 0.00 | 0.00 | 0.00 | 35 | 1008.4 |
| 20260506082549 | 9 | 0 | 0.0 | 0.0 | 0.00 | 0.00 | 0.00 | 35 | 1008.3 |
| 20260506082049 | 9 | 0 | 0.0 | 0.0 | 0.00 | 0.00 | 0.00 | 35 | 1008.5 |
| 20260506081551 | 9 | 0 | 0.0 | 0.0 | 0.00 | 0.00 | 0.00 | 36 | 1008.6 |
| 20260506081050 | 9 | 0 | 0.0 | 0.0 | 0.00 | 0.00 | 0.00 | 36 | 1008.5 |
| 20260506080550 | 9 | 0 | 0.0 | 0.0 | 0.00 | 0.00 | 0.00 | 36 | 1008.6 |
| 20260506073057 | 10 | 0 | 0.0 | 0.0 | 0.00 | 0.00 | 0.00 | 39 | 1008.7 |
| 20260506072550 | 10 | 0 | 0.0 | 0.0 | 0.00 | 0.00 | 0.00 | 39 | 1008.8 |
| 20260506072050 | 10 | 0 | 0.0 | 0.0 | 0.00 | 0.00 | 0.00 | 39 | 1008.9 |
| 20260506071556 | 10 | 0 | 0.0 | 0.0 | 0.00 | 0.00 | 0.00 | 39 | 1008.9 |
| 20260506071049 | 10 | 0 | 0.0 | 0.0 | 0.00 | 0.00 | 0.00 | 39 | 1008.8 |
| 20260506070553 | 10 | 0 | 0.0 | 0.0 | 0.00 | 0.00 | 0.00 | 39 | 1009.0 |
| 20260506062055 | 11 | 0 | 0.0 | 0.0 | 0.00 | 0.00 | 0.00 | 42 | 1008.9 |
| 20260506061552 | 11 | 0 | 0.0 | 0.0 | 0.00 | 0.00 | 0.00 | 43 | 1008.9 |
| 20260506061053 | 11 | 0 | 0.0 | 0.0 | 0.00 | 0.00 | 0.00 | 43 | 1008.8 |
| 20260506060550 | 11 | 0 | 0.0 | 0.0 | 0.00 | 0.00 | 0.00 | 43 | 1008.8 |
| 20260506060121 | 12 | 0 | 0.0 | 0.0 | 0.00 | 0.00 | 0.00 | 44 | 1008.9 |
| 20260506051051 | 13 | 0 | 0.0 | 0.0 | 0.00 | 0.00 | 0.00 | 52 | 1009.3 |
| 20260506050551 | 13 | 0 | 0.0 | 0.0 | 0.00 | 0.00 | 0.00 | 53 | 1009.3 |
| 20260506045055 | 13 | 0 | 0.0 | 0.0 | 0.00 | 0.00 | 0.00 | 55 | 1009.2 |
| 20260506044605 | 13 | 0 | 0.0 | 0.0 | 0.00 | 0.00 | 0.00 | 56 | 1009.3 |
| 20260506044053 | 13 | 0 | 0.0 | 0.0 | 0.00 | 0.00 | 0.00 | 57 | 1009.3 |
| 20260506043552 | 14 | 0 | 0.0 | 0.0 | 0.00 | 0.00 | 0.00 | 57 | 1009.3 |
| 20260506043052 | 14 | 0 | 0.0 | 0.0 | 0.00 | 0.00 | 0.00 | 58 | 1009.1 |
| 20260506042551 | 14 | 0 | 0.0 | 0.0 | 0.00 | 0.00 | 0.00 | 58 | 1009.1 |
| 20260506042052 | 14 | 0 | 0.0 | 0.0 | 0.00 | 0.00 | 0.00 | 59 | 1008.9 |
| 20260506041557 | 14 | 0 | 0.0 | 0.0 | 0.00 | 0.00 | 0.00 | 59 | 1008.9 |
| 20260506041052 | 15 | 0 | 0.0 | 0.0 | 0.00 | 0.00 | 0.00 | 60 | 1008.9 |
| 20260506040551 | 15 | 0 | 0.0 | 0.0 | 0.00 | 0.00 | 0.00 | 61 | 1008.7 |
| 20260506040057 | 15 | 0 | 0.0 | 0.0 | 0.00 | 0.00 | 0.00 | 62 | 1008.8 |
| 20260506035551 | 15 | 0 | 0.0 | 0.0 | 0.00 | 0.00 | 0.00 | 62 | 1008.7 |
| 20260506035051 | 15 | 0 | 0.0 | 0.0 | 0.00 | 0.00 | 0.00 | 63 | 1008.8 |
| 20260506034552 | 15 | 0 | 0.0 | 0.0 | 0.00 | 0.00 | 0.00 | 64 | 1008.8 |
| 20260506034051 | 15 | 0 | 0.0 | 0.0 | 0.00 | 0.00 | 0.00 | 64 | 1008.8 |
| 20260506033550 | 15 | 0 | 0.0 | 0.0 | 0.00 | 0.00 | 0.00 | 65 | 1008.8 |
| 20260506033052 | 15 | 0 | 0.0 | 0.0 | 0.00 | 0.00 | 0.00 | 66 | 1008.8 |
| 20260506032556 | 15 | 0 | 0.0 | 0.0 | 0.00 | 0.00 | 0.00 | 66 | 1008.6 |
| 20260506032052 | 15 | 0 | 0.0 | 0.0 | 0.00 | 0.00 | 0.00 | 66 | 1008.7 |
| 20260506031558 | 15 | 0 | 0.0 | 0.0 | 0.00 | 0.00 | 0.00 | 67 | 1008.7 |
| 20260506031050 | 16 | 0 | 0.0 | 0.0 | 0.00 | 0.00 | 0.00 | 67 | 1008.6 |
| 20260506030556 | 16 | 0 | 0.0 | 0.0 | 0.00 | 0.00 | 0.00 | 67 | 1008.7 |
| 20260506030055 | 16 | 0 | 0.0 | 0.0 | 0.00 | 0.00 | 0.00 | 67 | 1008.7 |
| 20260506025551 | 16 | 0 | 0.0 | 0.0 | 0.00 | 0.00 | 0.00 | 67 | 1008.8 |
| 20260506025051 | 16 | 0 | 0.0 | 0.0 | 0.00 | 0.00 | 0.00 | 67 | 1008.8 |
| 20260506024600 | 16 | 0 | 0.0 | 0.0 | 0.00 | 0.00 | 0.00 | 67 | 1008.9 |
| 20260506024051 | 16 | 0 | 0.0 | 0.0 | 0.00 | 0.00 | 0.00 | 67 | 1008.8 |
| 20260506023552 | 16 | 0 | 0.0 | 0.0 | 0.00 | 0.00 | 0.00 | 67 | 1009.0 |
| 20260506023058 | 16 | 0 | 0.0 | 0.0 | 0.00 | 0.00 | 0.00 | 67 | 1008.9 |
| 20260506022551 | 16 | 0 | 0.0 | 0.0 | 0.00 | 0.00 | 0.00 | 67 | 1008.9 |
| 20260506022051 | 16 | 0 | 0.0 | 0.0 | 0.00 | 0.00 | 0.00 | 68 | 1009.0 |
| 20260506021550 | 16 | 0 | 0.0 | 0.0 | 0.00 | 0.00 | 0.00 | 68 | 1009.0 |
| 20260506021051 | 16 | 0 | 0.0 | 0.0 | 0.00 | 0.00 | 0.00 | 68 | 1008.9 |
| 20260506020550 | 16 | 0 | 0.0 | 1.6 | 0.00 | 0.00 | 0.00 | 68 | 1008.9 |
| 20260506020048 | 16 | 0 | 0.0 | 1.6 | 0.00 | 0.00 | 0.00 | 68 | 1009.0 |
| 20260506015553 | 16 | 0 | 0.0 | 0.0 | 0.00 | 0.00 | 0.00 | 68 | 1008.9 |
| 20260506015050 | 16 | 0 | 0.0 | 0.0 | 0.00 | 0.00 | 0.00 | 68 | 1009.0 |
| 20260506014554 | 16 | 0 | 0.0 | 0.0 | 0.00 | 0.00 | 0.00 | 68 | 1008.9 |
| 20260506014052 | 16 | 0 | 0.0 | 0.0 | 0.00 | 0.00 | 0.00 | 68 | 1008.7 |
| 20260506013553 | 16 | 0 | 0.0 | 0.0 | 0.00 | 0.00 | 0.00 | 68 | 1008.8 |
| 20260506013052 | 16 | 0 | 0.0 | 0.0 | 0.00 | 0.00 | 0.00 | 68 | 1008.6 |
| 20260506012551 | 16 | 0 | 0.0 | 0.0 | 0.00 | 0.00 | 0.00 | 68 | 1008.6 |
| 20260506012052 | 17 | 0 | 0.0 | 0.0 | 0.00 | 0.00 | 0.00 | 68 | 1008.6 |
| 20260506011556 | 17 | 0 | 0.0 | 0.0 | 0.00 | 0.00 | 0.00 | 68 | 1008.7 |
| 20260506011051 | 17 | 0 | 0.0 | 0.0 | 0.00 | 0.00 | 0.00 | 68 | 1008.7 |
| 20260506010555 | 17 | 0 | 0.0 | 3.2 | 0.00 | 0.00 | 0.00 | 67 | 1008.6 |
| 20260506010054 | 17 | 0 | 0.0 | 3.2 | 0.00 | 0.00 | 0.00 | 67 | 1008.6 |
| 20260506005554 | 17 | 0 | 0.0 | 3.2 | 0.00 | 0.00 | 0.00 | 67 | 1008.5 |
| 20260506005050 | 17 | 0 | 0.0 | 0.0 | 0.00 | 0.00 | 0.00 | 67 | 1008.5 |
| 20260506004554 | 17 | 0 | 0.0 | 3.2 | 0.00 | 0.00 | 0.00 | 67 | 1008.4 |
| 20260506004052 | 17 | 0 | 0.0 | 3.2 | 0.00 | 0.00 | 0.00 | 67 | 1008.5 |
| 20260506003551 | 17 | 0 | 0.0 | 3.2 | 0.00 | 0.00 | 0.00 | 67 | 1008.4 |
| 20260506003053 | 17 | 0 | 0.0 | 1.6 | 0.00 | 0.00 | 0.00 | 67 | 1008.3 |
| 20260506002551 | 17 | 0 | 0.0 | 0.0 | 0.00 | 0.00 | 0.00 | 67 | 1008.3 |
| 20260506002051 | 17 | 0 | 0.0 | 0.0 | 0.00 | 0.00 | 0.00 | 66 | 1008.2 |
| 20260506001601 | 17 | 0 | 0.0 | 0.0 | 0.00 | 0.00 | 0.00 | 66 | 1008.1 |
| 20260506001052 | 17 | 0 | 0.0 | 0.0 | 0.00 | 0.00 | 0.00 | 65 | 1008.0 |
| 20260506000552 | 18 | 0 | 0.0 | 1.6 | 0.00 | 0.00 | 0.00 | 65 | 1008.1 |
| 20260506000054 | 18 | 0 | 0.0 | 1.6 | 0.00 | 0.00 | 0.00 | 65 | 1008.2 |
| 20260505235551 | 18 | 0 | 0.0 | 1.6 | 0.00 | 0.00 | 0.00 | 65 | 1008.0 |
| 20260505235051 | 18 | 0 | 0.0 | 3.2 | 0.00 | 0.00 | 0.00 | 65 | 1008.0 |
| 20260505234559 | 18 | 229 | 0.0 | 3.2 | 0.00 | 0.00 | 0.00 | 64 | 1008.0 |
| 20260505234054 | 18 | 0 | 1.6 | 3.2 | 0.00 | 0.00 | 0.00 | 64 | 1008.1 |
| 20260505233551 | 18 | 0 | 0.0 | 4.8 | 0.00 | 0.00 | 0.00 | 63 | 1008.2 |
| 20260505233055 | 18 | 0 | 0.0 | 4.8 | 0.00 | 0.00 | 0.00 | 63 | 1008.0 |
| 20260505232554 | 18 | 232 | 1.6 | 4.8 | 0.00 | 0.00 | 0.00 | 62 | 1007.9 |
| 20260505232051 | 18 | 186 | 1.6 | 14.5 | 0.00 | 0.00 | 0.00 | 62 | 1008.0 |
| 20260505231602 | 19 | 0 | 3.2 | 14.5 | 0.00 | 0.00 | 0.00 | 61 | 1007.8 |
| 20260505231050 | 19 | 167 | 1.6 | 14.5 | 0.00 | 0.00 | 0.00 | 60 | 1007.7 |
| 20260505230551 | 20 | 355 | 4.8 | 17.7 | 0.00 | 0.00 | 0.00 | 59 | 1007.7 |
| 20260505230059 | 21 | 241 | 6.4 | 22.5 | 0.00 | 0.00 | 0.00 | 55 | 1007.7 |
| 20260505225551 | 22 | 105 | 6.4 | 22.5 | 0.00 | 0.00 | 0.00 | 49 | 1007.8 |
| 20260505225053 | 23 | 251 | 4.8 | 20.9 | 0.00 | 0.00 | 0.00 | 44 | 1007.5 |
| 20260505224554 | 23 | 309 | 11.3 | 25.7 | 0.00 | 0.00 | 0.00 | 38 | 1007.1 |
| 20260505224051 | 23 | 223 | 11.3 | 25.7 | 0.00 | 0.00 | 0.00 | 37 | 1006.6 |
| 20260505223551 | 23 | 187 | 9.7 | 22.5 | 0.00 | 0.00 | 0.00 | 36 | 1006.2 |
| 20260505223049 | 23 | 254 | 6.4 | 22.5 | 0.00 | 0.00 | 0.00 | 36 | 1006.2 |